Location: Northam
(31.6525°S, 116.6655°E)
Time: 17:33:22
(UTC+08:00)

Hubble Space Telescope - Pass Details

Date: 21 May 2021
Orbit: 535 x 539 km, 28.5° (Epoch: 17 June)

Event Time Altitude Azimuth Distance (km) Brightness Sun altitude
Rises 20:14:56 0° 271° (W) 2,692 5.3 -36.6°
Reaches altitude 10° 20:17:20 10° 279° (W) 1,800 4.2 -37.1°
Enters shadow 20:17:27 11° 280° (W) 1,754 4.1 -37.1°
